📊 Raw Sensor Data

Showing records 44051 to 44075 of 85,029 total

ID Distance (ft) Battery V Battery A Int Temp (°F) Int Humid (%) Ext Temp (°F) Solar V RSSI SNR Time Stamp
40991 15.6 3.88 -5 68 52 66 1.40 -67 7 05/18/2025 08:30 PM
40990 15.6 3.96 -10 73 51 70 3.20 -67 7 05/18/2025 08:15 PM
40989 15.6 3.91 0 78 49 73 4.50 -68 7 05/18/2025 08:00 PM
40988 15.6 3.92 0 81 48 76 4.60 -69 8 05/18/2025 07:45 PM
40987 15.8 4.00 7 83 47 77 4.50 -68 8 05/18/2025 07:30 PM
40986 15.7 4.01 10 84 47 79 4.50 -69 8 05/18/2025 07:15 PM
40985 15.7 4.03 0 85 46 80 4.50 -70 8 05/18/2025 07:00 PM
40984 15.7 3.96 0 86 46 80 5.10 -69 8 05/18/2025 06:45 PM
40983 15.7 4.05 0 87 45 80 5.10 -68 7 05/18/2025 06:30 PM
40982 15.7 3.96 0 87 45 81 5.10 -68 8 05/18/2025 06:15 PM
40981 15.7 3.96 0 88 45 81 5.10 -68 7 05/18/2025 06:00 PM
40980 15.7 4.04 0 88 44 82 5.10 -68 8 05/18/2025 05:45 PM
40979 15.7 3.96 0 88 44 81 5.10 -69 8 05/18/2025 05:30 PM
40978 15.7 3.96 0 88 44 81 5.10 -68 8 05/18/2025 05:15 PM
40977 15.7 3.96 0 89 43 81 5.10 -69 7 05/18/2025 05:00 PM
40976 15.8 4.02 0 89 43 81 5.10 -69 8 05/18/2025 04:45 PM
40975 15.7 3.96 0 88 43 81 5.10 -66 8 05/18/2025 04:30 PM
40974 15.7 3.96 0 88 43 81 5.10 -68 8 05/18/2025 04:15 PM
40973 15.7 3.96 0 88 42 81 5.10 -70 8 05/18/2025 04:00 PM
40972 15.7 3.97 0 88 42 80 5.10 -70 8 05/18/2025 03:45 PM
40971 15.7 3.96 0 88 41 81 5.10 -69 8 05/18/2025 03:30 PM
40970 15.8 3.96 0 88 41 81 5.10 -70 6 05/18/2025 03:15 PM
40969 15.7 3.96 0 88 41 80 5.10 -68 8 05/18/2025 03:00 PM
40968 15.7 3.96 0 87 41 80 5.10 -69 7 05/18/2025 02:45 PM
40967 15.7 3.96 0 86 41 78 5.10 -70 8 05/18/2025 02:30 PM